Time,TemperatureF,DewpointF,PressureIn,WindDirection,WindDirectionDegrees,WindSpeedMPH,WindSpeedGustMPH,Humidity,HourlyPrecipIn,Conditions,Clouds,dailyrainin,SoftwareType,DateUTC
2013-08-31 00:01:00,65.3,64.1,29.76,ENE,59,0.0,0.0,96,0.27,,,0.00,WeatherCatV1.15B25,2013-08-31 04:01:00,
2013-08-31 00:02:00,65.3,64.1,29.76,ENE,59,0.0,0.0,96,0.19,,,0.00,WeatherCatV1.15B25,2013-08-31 04:02:00,
2013-08-31 00:03:00,65.2,64.0,29.76,ENE,59,0.0,0.0,96,0.14,,,0.00,WeatherCatV1.15B25,2013-08-31 04:03:00,
2013-08-31 00:04:00,65.2,64.0,29.76,ENE,59,0.0,0.0,96,0.11,,,0.00,WeatherCatV1.15B25,2013-08-31 04:04:00,
2013-08-31 00:06:00,65.2,64.0,29.76,ENE,59,0.0,0.0,96,0.08,,,0.00,WeatherCatV1.15B25,2013-08-31 04:06:00,
2013-08-31 00:08:00,65.2,64.0,29.76,ENE,59,0.0,0.0,96,0.07,,,0.00,WeatherCatV1.15B25,2013-08-31 04:08:00,
2013-08-31 00:13:00,65.2,64.0,29.76,ENE,59,0.0,0.0,96,0.04,,,0.00,WeatherCatV1.15B25,2013-08-31 04:13:00,
2013-08-31 00:18:00,65.3,64.1,29.76,ENE,59,0.0,0.0,96,0.00,,,0.00,WeatherCatV1.15B25,2013-08-31 04:18:00,
2013-08-31 00:23:00,65.4,64.2,29.76,ENE,59,0.0,0.0,96,0.00,,,0.00,WeatherCatV1.15B25,2013-08-31 04:23:00,
2013-08-31 00:28:00,65.4,64.2,29.75,ENE,59,0.0,0.0,96,0.00,,,0.00,WeatherCatV1.15B25,2013-08-31 04:28:00,
2013-08-31 00:33:00,65.3,64.1,29.75,ENE,59,0.0,0.0,96,0.00,,,0.00,WeatherCatV1.15B25,2013-08-31 04:33:00,
2013-08-31 00:38:00,65.3,64.1,29.75,ENE,59,0.0,0.0,96,0.00,,,0.00,WeatherCatV1.15B25,2013-08-31 04:38:00,
2013-08-31 00:43:00,65.2,64.0,29.75,ENE,59,0.0,0.0,96,0.00,,,0.00,WeatherCatV1.15B25,2013-08-31 04:43:00,
2013-08-31 00:48:00,65.2,64.0,29.75,ENE,59,0.0,0.0,96,0.00,,,0.00,WeatherCatV1.15B25,2013-08-31 04:48:00,
2013-08-31 00:53:00,65.2,64.0,29.75,ENE,59,0.0,0.0,96,0.00,,,0.01,WeatherCatV1.15B25,2013-08-31 04:53:00,
2013-08-31 00:58:00,65.2,64.0,29.75,ENE,59,0.0,0.0,96,0.00,,,0.01,WeatherCatV1.15B25,2013-08-31 04:58:00,
2013-08-31 01:03:00,65.2,64.0,29.74,ENE,59,0.0,0.0,96,0.00,,,0.01,WeatherCatV1.15B25,2013-08-31 05:03:00,
2013-08-31 01:08:00,65.2,64.0,29.74,ENE,59,0.0,0.0,96,0.00,,,0.01,WeatherCatV1.15B25,2013-08-31 05:08:00,
2013-08-31 01:13:00,65.4,64.2,29.74,ENE,59,0.0,0.0,96,0.00,,,0.01,WeatherCatV1.15B25,2013-08-31 05:13:00,
2013-08-31 01:18:00,65.4,64.2,29.74,ENE,59,0.0,0.0,96,0.00,,,0.01,WeatherCatV1.15B25,2013-08-31 05:18:00,
2013-08-31 01:23:00,65.3,64.1,29.74,ENE,59,0.0,0.0,96,0.00,,,0.01,WeatherCatV1.15B25,2013-08-31 05:23:00,
2013-08-31 01:28:00,65.1,63.9,29.74,ENE,59,0.0,0.0,96,0.00,,,0.01,WeatherCatV1.15B25,2013-08-31 05:28:00,
2013-08-31 01:33:00,65.0,63.8,29.74,ENE,59,0.0,0.0,96,0.00,,,0.01,WeatherCatV1.15B25,2013-08-31 05:33:00,
2013-08-31 01:38:00,64.9,63.7,29.73,ENE,59,0.0,0.0,96,0.00,,,0.01,WeatherCatV1.15B25,2013-08-31 05:38:00,
2013-08-31 01:43:00,64.8,63.6,29.73,ENE,59,0.0,0.0,96,0.00,,,0.01,WeatherCatV1.15B25,2013-08-31 05:43:00,
2013-08-31 01:48:00,64.7,63.5,29.74,ENE,59,0.0,0.0,96,0.00,,,0.01,WeatherCatV1.15B25,2013-08-31 05:48:00,
2013-08-31 01:53:00,64.7,63.5,29.73,ENE,59,0.0,0.0,96,0.00,,,0.01,WeatherCatV1.15B25,2013-08-31 05:53:00,
2013-08-31 01:58:00,64.6,63.4,29.73,ENE,59,0.0,0.0,96,0.00,,,0.01,WeatherCatV1.15B25,2013-08-31 05:58:00,
2013-08-31 02:03:00,64.4,63.2,29.73,ENE,59,0.0,0.0,96,0.00,,,0.01,WeatherCatV1.15B25,2013-08-31 06:03:00,
2013-08-31 02:08:00,64.3,63.1,29.73,ENE,59,0.0,0.0,96,0.00,,,0.01,WeatherCatV1.15B25,2013-08-31 06:08:00,
2013-08-31 02:13:00,64.3,63.1,29.73,ENE,59,0.0,0.0,96,0.00,,,0.01,WeatherCatV1.15B25,2013-08-31 06:13:00,
2013-08-31 02:18:00,64.3,63.1,29.73,ENE,59,0.0,0.0,96,0.00,,,0.01,WeatherCatV1.15B25,2013-08-31 06:18:00,
2013-08-31 02:23:00,64.3,63.1,29.73,ENE,59,0.0,0.0,96,0.00,,,0.01,WeatherCatV1.15B25,2013-08-31 06:23:00,
2013-08-31 02:28:00,64.1,62.9,29.73,ENE,59,0.0,0.0,96,0.00,,,0.01,WeatherCatV1.15B25,2013-08-31 06:28:00,
2013-08-31 02:33:00,64.1,62.9,29.73,ENE,59,0.0,0.0,96,0.00,,,0.01,WeatherCatV1.15B25,2013-08-31 06:33:00,
2013-08-31 02:38:00,63.9,62.7,29.73,ENE,59,0.0,0.0,96,0.00,,,0.01,WeatherCatV1.15B25,2013-08-31 06:38:00,
2013-08-31 02:43:00,63.8,62.6,29.73,ENE,59,0.0,0.0,96,0.00,,,0.01,WeatherCatV1.15B25,2013-08-31 06:43:00,
2013-08-31 02:48:00,63.8,62.6,29.74,ENE,59,0.0,0.0,96,0.00,,,0.01,WeatherCatV1.15B25,2013-08-31 06:48:00,
2013-08-31 02:53:00,63.7,62.5,29.74,ENE,59,0.0,0.0,96,0.00,,,0.01,WeatherCatV1.15B25,2013-08-31 06:53:00,
2013-08-31 02:58:00,63.6,62.4,29.74,ENE,59,0.0,0.0,96,0.00,,,0.01,WeatherCatV1.15B25,2013-08-31 06:58:00,
2013-08-31 03:03:00,63.6,62.4,29.74,ENE,59,0.0,0.0,96,0.00,,,0.01,WeatherCatV1.15B25,2013-08-31 07:03:00,
2013-08-31 03:08:00,63.6,62.4,29.74,ENE,59,0.0,0.0,96,0.00,,,0.01,WeatherCatV1.15B25,2013-08-31 07:08:00,
2013-08-31 03:13:00,63.7,62.5,29.74,ENE,59,0.0,0.0,96,0.00,,,0.01,WeatherCatV1.15B25,2013-08-31 07:13:00,
2013-08-31 03:18:00,63.6,62.4,29.74,ENE,59,0.0,0.0,96,0.00,,,0.01,WeatherCatV1.15B25,2013-08-31 07:18:00,
2013-08-31 03:23:00,63.6,62.4,29.73,ENE,59,0.0,0.0,96,0.00,,,0.01,WeatherCatV1.15B25,2013-08-31 07:23:00,
2013-08-31 03:28:00,63.6,62.4,29.73,ENE,59,0.0,0.0,96,0.00,,,0.01,WeatherCatV1.15B25,2013-08-31 07:28:00,
2013-08-31 03:33:00,63.6,62.4,29.73,ENE,59,0.0,0.0,96,0.00,,,0.01,WeatherCatV1.15B25,2013-08-31 07:33:00,
2013-08-31 03:38:00,63.6,62.4,29.74,ENE,59,0.0,0.0,96,0.00,,,0.01,WeatherCatV1.15B25,2013-08-31 07:38:00,
2013-08-31 03:43:00,63.5,62.3,29.74,ENE,59,0.0,0.0,96,0.00,,,0.01,WeatherCatV1.15B25,2013-08-31 07:43:00,
2013-08-31 03:48:00,63.5,62.3,29.73,ENE,59,0.0,0.0,96,0.00,,,0.01,WeatherCatV1.15B25,2013-08-31 07:48:00,
2013-08-31 03:53:00,63.6,62.4,29.73,ENE,59,0.0,0.0,96,0.00,,,0.01,WeatherCatV1.15B25,2013-08-31 07:53:00,
2013-08-31 03:58:00,63.5,62.3,29.74,ENE,59,0.0,0.0,96,0.00,,,0.01,WeatherCatV1.15B25,2013-08-31 07:58:00,
2013-08-31 04:03:00,63.5,62.3,29.74,ENE,59,0.0,0.0,96,0.00,,,0.01,WeatherCatV1.15B25,2013-08-31 08:03:00,
2013-08-31 04:09:00,63.4,62.2,29.74,ENE,59,0.0,0.0,96,0.00,,,0.01,WeatherCatV1.15B25,2013-08-31 08:09:00,
2013-08-31 04:14:00,63.4,62.2,29.74,ENE,59,0.0,0.0,96,0.00,,,0.01,WeatherCatV1.15B25,2013-08-31 08:14:00,
2013-08-31 04:19:00,63.4,62.2,29.74,ENE,59,0.0,0.0,96,0.00,,,0.01,WeatherCatV1.15B25,2013-08-31 08:19:00,
2013-08-31 04:24:00,63.4,62.5,29.74,ENE,59,0.0,0.0,97,0.00,,,0.01,WeatherCatV1.15B25,2013-08-31 08:24:00,
2013-08-31 04:29:00,63.3,62.4,29.75,ENE,59,0.0,0.0,97,0.00,,,0.01,WeatherCatV1.15B25,2013-08-31 08:29:00,
2013-08-31 04:34:00,63.4,62.5,29.75,ENE,59,0.0,0.0,97,0.00,,,0.01,WeatherCatV1.15B25,2013-08-31 08:34:00,
2013-08-31 04:39:00,63.4,62.5,29.75,ENE,59,0.0,0.0,97,0.00,,,0.01,WeatherCatV1.15B25,2013-08-31 08:39:00,
2013-08-31 04:44:00,63.4,62.5,29.75,ENE,59,0.0,0.0,97,0.00,,,0.01,WeatherCatV1.15B25,2013-08-31 08:44:00,
2013-08-31 04:49:00,63.4,62.5,29.75,ENE,59,0.0,0.0,97,0.00,,,0.01,WeatherCatV1.15B25,2013-08-31 08:49:00,
2013-08-31 04:54:00,63.6,62.7,29.75,ENE,59,0.0,0.0,97,0.00,,,0.01,WeatherCatV1.15B25,2013-08-31 08:54:00,
2013-08-31 04:59:00,63.7,62.8,29.75,ENE,59,0.0,0.0,97,0.00,,,0.01,WeatherCatV1.15B25,2013-08-31 08:59:00,
2013-08-31 05:04:00,63.6,62.7,29.75,ENE,59,0.0,0.0,97,0.00,,,0.01,WeatherCatV1.15B25,2013-08-31 09:04:00,
2013-08-31 05:09:00,63.5,62.6,29.75,ENE,59,0.0,0.0,97,0.00,,,0.01,WeatherCatV1.15B25,2013-08-31 09:09:00,
2013-08-31 05:14:00,63.5,62.6,29.74,ENE,59,0.0,0.0,97,0.00,,,0.01,WeatherCatV1.15B25,2013-08-31 09:14:00,
2013-08-31 05:19:00,63.5,62.6,29.74,ENE,59,0.0,0.0,97,0.00,,,0.01,WeatherCatV1.15B25,2013-08-31 09:19:00,
2013-08-31 05:24:00,63.5,62.6,29.75,ENE,59,0.0,0.0,97,0.00,,,0.01,WeatherCatV1.15B25,2013-08-31 09:24:00,
2013-08-31 05:29:00,63.6,62.7,29.75,ENE,59,0.0,0.0,97,0.00,,,0.01,WeatherCatV1.15B25,2013-08-31 09:29:00,
2013-08-31 05:34:00,63.6,62.7,29.75,ENE,59,0.0,0.0,97,0.00,,,0.01,WeatherCatV1.15B25,2013-08-31 09:34:00,
2013-08-31 05:39:00,63.6,62.7,29.75,ENE,59,0.0,0.0,97,0.00,,,0.01,WeatherCatV1.15B25,2013-08-31 09:39:00,
2013-08-31 05:44:00,63.6,62.7,29.75,ENE,59,0.0,0.0,97,0.00,,,0.01,WeatherCatV1.15B25,2013-08-31 09:44:00,
2013-08-31 05:49:00,63.7,62.8,29.75,ENE,59,0.0,0.0,97,0.00,,,0.01,WeatherCatV1.15B25,2013-08-31 09:49:00,
2013-08-31 05:54:00,63.8,62.9,29.75,ENE,59,0.0,0.0,97,0.00,,,0.01,WeatherCatV1.15B25,2013-08-31 09:54:00,
2013-08-31 05:59:00,63.9,63.0,29.75,ENE,59,0.0,0.0,97,0.00,,,0.01,WeatherCatV1.15B25,2013-08-31 09:59:00,
2013-08-31 06:04:00,63.9,63.0,29.76,ENE,59,0.0,0.0,97,0.00,,,0.01,WeatherCatV1.15B25,2013-08-31 10:04:00,
2013-08-31 06:09:00,63.8,62.9,29.75,ENE,59,0.0,0.0,97,0.00,,,0.01,WeatherCatV1.15B25,2013-08-31 10:09:00,
2013-08-31 06:14:00,63.6,62.7,29.76,ENE,59,0.0,0.0,97,0.00,,,0.01,WeatherCatV1.15B25,2013-08-31 10:14:00,
2013-08-31 06:19:00,63.6,62.7,29.76,ENE,59,0.0,0.0,97,0.00,,,0.01,WeatherCatV1.15B25,2013-08-31 10:19:00,
2013-08-31 06:24:00,63.6,62.7,29.76,ENE,59,0.0,0.0,97,0.00,,,0.01,WeatherCatV1.15B25,2013-08-31 10:24:00,
2013-08-31 06:29:00,63.5,62.6,29.76,ENE,59,0.0,0.0,97,0.00,,,0.01,WeatherCatV1.15B25,2013-08-31 10:29:00,
2013-08-31 06:34:00,63.5,62.6,29.76,ENE,59,0.0,0.0,97,0.00,,,0.01,WeatherCatV1.15B25,2013-08-31 10:34:00,
2013-08-31 06:39:00,63.5,62.6,29.77,ENE,59,0.0,0.0,97,0.00,,,0.01,WeatherCatV1.15B25,2013-08-31 10:39:00,
2013-08-31 06:44:00,63.5,62.6,29.76,ENE,59,0.0,0.0,97,0.00,,,0.01,WeatherCatV1.15B25,2013-08-31 10:44:00,
2013-08-31 06:49:00,63.5,62.6,29.76,ENE,59,0.0,0.0,97,0.00,,,0.01,WeatherCatV1.15B25,2013-08-31 10:49:00,
2013-08-31 06:54:00,63.6,62.7,29.76,ENE,59,0.0,0.0,97,0.00,,,0.01,WeatherCatV1.15B25,2013-08-31 10:54:00,
2013-08-31 06:59:00,63.6,62.7,29.77,ENE,59,0.0,0.0,97,0.00,,,0.01,WeatherCatV1.15B25,2013-08-31 10:59:00,
2013-08-31 07:04:00,63.6,62.7,29.77,ENE,59,0.0,0.0,97,0.00,,,0.01,WeatherCatV1.15B25,2013-08-31 11:04:00,
2013-08-31 07:09:00,63.7,62.8,29.77,ENE,59,0.0,0.0,97,0.00,,,0.01,WeatherCatV1.15B25,2013-08-31 11:09:00,
2013-08-31 07:14:00,63.8,62.9,29.77,ENE,59,0.0,0.0,97,0.00,,,0.01,WeatherCatV1.15B25,2013-08-31 11:14:00,
2013-08-31 07:19:00,63.9,63.0,29.78,ENE,59,0.0,0.0,97,0.00,,,0.01,WeatherCatV1.15B25,2013-08-31 11:19:00,
2013-08-31 07:24:00,64.0,63.1,29.78,ENE,59,0.0,0.0,97,0.00,,,0.01,WeatherCatV1.15B25,2013-08-31 11:24:00,
2013-08-31 07:29:00,64.1,63.2,29.78,ENE,59,0.0,0.0,97,0.00,,,0.01,WeatherCatV1.15B25,2013-08-31 11:29:00,
2013-08-31 07:34:00,64.4,63.5,29.77,ENE,59,0.0,0.0,97,0.00,,,0.01,WeatherCatV1.15B25,2013-08-31 11:34:00,
2013-08-31 07:39:00,64.6,63.7,29.77,ENE,59,0.0,0.0,97,0.00,,,0.01,WeatherCatV1.15B25,2013-08-31 11:39:00,
2013-08-31 07:44:00,64.8,63.9,29.76,ENE,59,0.0,0.0,97,0.00,,,0.01,WeatherCatV1.15B25,2013-08-31 11:44:00,
2013-08-31 07:49:00,64.9,64.0,29.76,ENE,59,0.0,0.0,97,0.00,,,0.01,WeatherCatV1.15B25,2013-08-31 11:49:00,
2013-08-31 07:54:00,64.9,64.0,29.76,ENE,59,0.0,0.0,97,0.00,,,0.01,WeatherCatV1.15B25,2013-08-31 11:54:00,
2013-08-31 07:59:00,65.0,64.1,29.77,ENE,59,0.0,0.0,97,0.00,,,0.01,WeatherCatV1.15B25,2013-08-31 11:59:00,
2013-08-31 08:04:00,65.2,64.3,29.77,ENE,59,0.0,0.0,97,0.00,,,0.01,WeatherCatV1.15B25,2013-08-31 12:04:00,
2013-08-31 08:09:00,65.4,64.5,29.76,ENE,59,0.0,0.0,97,0.00,,,0.01,WeatherCatV1.15B25,2013-08-31 12:09:00,
2013-08-31 08:14:00,65.5,64.6,29.76,ENE,59,0.0,0.0,97,0.00,,,0.01,WeatherCatV1.15B25,2013-08-31 12:14:00,
2013-08-31 08:19:00,65.8,64.9,29.76,ENE,59,0.0,0.0,97,0.00,,,0.01,WeatherCatV1.15B25,2013-08-31 12:19:00,
2013-08-31 08:24:00,66.1,65.2,29.77,ENE,59,0.0,0.0,97,0.00,,,0.01,WeatherCatV1.15B25,2013-08-31 12:24:00,
2013-08-31 08:29:00,66.5,65.6,29.77,ENE,59,0.0,0.0,97,0.00,,,0.01,WeatherCatV1.15B25,2013-08-31 12:29:00,
2013-08-31 08:34:00,66.8,65.9,29.77,ENE,59,0.0,0.0,97,0.00,,,0.01,WeatherCatV1.15B25,2013-08-31 12:34:00,
2013-08-31 08:39:00,67.0,66.1,29.77,ENE,59,0.0,0.0,97,0.00,,,0.01,WeatherCatV1.15B25,2013-08-31 12:39:00,
2013-08-31 08:44:00,67.0,66.1,29.77,ENE,59,0.0,0.0,97,0.00,,,0.01,WeatherCatV1.15B25,2013-08-31 12:44:00,
2013-08-31 08:49:00,67.1,66.2,29.77,ENE,59,0.0,0.0,97,0.00,,,0.01,WeatherCatV1.15B25,2013-08-31 12:49:00,
2013-08-31 08:54:00,67.4,66.5,29.77,ENE,59,0.0,0.0,97,0.00,,,0.01,WeatherCatV1.15B25,2013-08-31 12:54:00,
2013-08-31 08:59:00,67.7,66.8,29.77,ENE,59,0.0,0.0,97,0.00,,,0.01,WeatherCatV1.15B25,2013-08-31 12:59:00,
2013-08-31 09:04:00,68.1,67.2,29.77,ENE,59,0.0,0.0,97,0.00,,,0.01,WeatherCatV1.15B25,2013-08-31 13:04:00,
2013-08-31 09:09:00,68.0,67.1,29.77,ENE,59,0.0,0.0,97,0.00,,,0.01,WeatherCatV1.15B25,2013-08-31 13:09:00,
2013-08-31 09:14:00,67.8,66.9,29.77,ENE,59,0.0,0.0,97,0.00,,,0.01,WeatherCatV1.15B25,2013-08-31 13:14:00,
2013-08-31 09:19:00,68.0,67.1,29.78,ENE,59,0.0,0.0,97,0.00,,,0.01,WeatherCatV1.15B25,2013-08-31 13:19:00,
2013-08-31 09:24:00,68.5,67.6,29.78,ENE,59,0.0,0.0,97,0.00,,,0.01,WeatherCatV1.15B25,2013-08-31 13:24:00,
2013-08-31 09:29:00,68.8,67.9,29.78,ENE,59,0.0,0.0,97,0.00,,,0.01,WeatherCatV1.15B25,2013-08-31 13:29:00,
2013-08-31 09:34:00,69.4,68.5,29.77,ENE,59,0.0,0.0,97,0.00,,,0.01,WeatherCatV1.15B25,2013-08-31 13:34:00,
2013-08-31 09:39:00,69.9,69.0,29.78,ENE,59,0.0,0.0,97,0.00,,,0.01,WeatherCatV1.15B25,2013-08-31 13:39:00,
2013-08-31 09:44:00,70.1,69.2,29.77,NE,38,0.0,0.0,97,0.00,,,0.01,WeatherCatV1.15B25,2013-08-31 13:44:00,
2013-08-31 09:49:00,70.6,69.7,29.77,NE,38,0.0,1.0,97,0.00,,,0.01,WeatherCatV1.15B25,2013-08-31 13:49:00,
2013-08-31 09:54:00,71.1,70.2,29.77,NE,38,0.0,0.0,97,0.00,,,0.01,WeatherCatV1.15B25,2013-08-31 13:54:00,
2013-08-31 09:59:00,71.3,70.4,29.77,NE,38,0.0,0.0,97,0.00,,,0.01,WeatherCatV1.15B25,2013-08-31 13:59:00,
2013-08-31 10:04:00,71.3,70.4,29.77,NE,38,0.0,0.0,97,0.00,,,0.01,WeatherCatV1.15B25,2013-08-31 14:04:00,
2013-08-31 10:09:00,71.3,70.1,29.77,NE,38,0.0,0.0,96,0.00,,,0.01,WeatherCatV1.15B25,2013-08-31 14:09:00,
2013-08-31 10:14:00,71.3,70.1,29.77,NE,38,0.0,0.0,96,0.00,,,0.01,WeatherCatV1.15B25,2013-08-31 14:14:00,
2013-08-31 10:19:00,71.3,69.8,29.77,NE,38,0.0,0.0,95,0.00,,,0.01,WeatherCatV1.15B25,2013-08-31 14:19:00,
2013-08-31 10:24:00,71.7,70.2,29.76,NE,38,0.0,1.0,95,0.00,,,0.01,WeatherCatV1.15B25,2013-08-31 14:24:00,
2013-08-31 10:29:00,72.2,70.7,29.77,NE,53,0.0,0.0,95,0.00,,,0.01,WeatherCatV1.15B25,2013-08-31 14:29:00,
2013-08-31 10:34:00,72.6,69.8,29.76,ENE,69,0.0,0.0,91,0.00,,,0.01,WeatherCatV1.15B25,2013-08-31 14:34:00,
2013-08-31 10:39:00,73.0,69.6,29.77,ENE,69,0.0,0.0,89,0.00,,,0.01,WeatherCatV1.15B25,2013-08-31 14:39:00,
2013-08-31 10:44:00,73.6,70.1,29.76,North,355,1.0,1.0,89,0.00,,,0.01,WeatherCatV1.15B25,2013-08-31 14:44:00,
2013-08-31 10:49:00,74.1,69.6,29.76,WSW,250,1.0,3.0,86,0.00,,,0.01,WeatherCatV1.15B25,2013-08-31 14:49:00,
2013-08-31 10:54:00,74.6,69.8,29.76,ESE,121,0.0,1.0,85,0.00,,,0.01,WeatherCatV1.15B25,2013-08-31 14:54:00,
2013-08-31 10:59:00,74.8,69.6,29.76,ENE,63,0.0,0.0,84,0.00,,,0.01,WeatherCatV1.15B25,2013-08-31 14:59:00,
2013-08-31 11:04:00,75.0,69.5,29.75,ENE,63,0.0,0.0,83,0.00,,,0.01,WeatherCatV1.15B25,2013-08-31 15:04:00,
2013-08-31 11:09:00,75.3,69.8,29.76,ENE,63,0.0,0.0,83,0.00,,,0.01,WeatherCatV1.15B25,2013-08-31 15:09:00,
2013-08-31 11:14:00,75.5,70.0,29.76,ENE,63,0.0,0.0,83,0.00,,,0.01,WeatherCatV1.15B25,2013-08-31 15:14:00,
2013-08-31 11:19:00,75.7,69.4,29.76,North,355,0.0,2.0,81,0.00,,,0.01,WeatherCatV1.15B25,2013-08-31 15:19:00,
2013-08-31 11:24:00,75.9,70.0,29.75,South,169,0.0,1.0,82,0.00,,,0.01,WeatherCatV1.15B25,2013-08-31 15:24:00,
2013-08-31 11:29:00,76.2,69.6,29.75,East,81,0.0,3.0,80,0.00,,,0.01,WeatherCatV1.15B25,2013-08-31 15:29:00,
2013-08-31 11:34:00,76.7,69.3,29.75,ENE,71,1.0,2.0,78,0.00,,,0.01,WeatherCatV1.15B25,2013-08-31 15:34:00,
2013-08-31 11:39:00,77.0,68.4,29.75,East,92,1.0,3.0,75,0.00,,,0.01,WeatherCatV1.15B25,2013-08-31 15:39:00,
2013-08-31 11:44:00,77.3,68.7,29.75,SSE,149,0.0,0.0,75,0.00,,,0.01,WeatherCatV1.15B25,2013-08-31 15:44:00,
2013-08-31 11:49:00,77.5,68.9,29.75,ENE,63,0.0,2.0,75,0.00,,,0.01,WeatherCatV1.15B25,2013-08-31 15:49:00,
2013-08-31 11:54:00,77.5,68.9,29.75,ENE,63,0.0,1.0,75,0.00,,,0.01,WeatherCatV1.15B25,2013-08-31 15:54:00,
2013-08-31 11:59:00,77.0,68.8,29.75,ENE,63,0.0,1.0,76,0.00,,,0.01,WeatherCatV1.15B25,2013-08-31 15:59:00,
2013-08-31 12:04:00,76.9,70.2,29.75,ENE,63,0.0,0.0,80,0.00,,,0.01,WeatherCatV1.15B25,2013-08-31 16:04:00,
2013-08-31 12:09:00,76.7,69.3,29.75,ENE,63,0.0,0.0,78,0.00,,,0.01,WeatherCatV1.15B25,2013-08-31 16:09:00,
2013-08-31 12:14:00,76.8,70.5,29.75,ENE,63,0.0,0.0,81,0.00,,,0.01,WeatherCatV1.15B25,2013-08-31 16:14:00,
2013-08-31 12:19:00,77.2,70.5,29.75,ENE,63,0.0,2.0,80,0.00,,,0.01,WeatherCatV1.15B25,2013-08-31 16:19:00,
2013-08-31 12:24:00,77.6,70.9,29.74,ENE,63,0.0,0.0,80,0.00,,,0.01,WeatherCatV1.15B25,2013-08-31 16:24:00,
2013-08-31 12:29:00,77.9,71.2,29.74,ENE,63,0.0,1.0,80,0.00,,,0.01,WeatherCatV1.15B25,2013-08-31 16:29:00,
2013-08-31 12:34:00,77.9,69.7,29.74,ENE,63,0.0,1.0,76,0.00,,,0.01,WeatherCatV1.15B25,2013-08-31 16:34:00,
2013-08-31 12:39:00,77.7,69.5,29.74,ENE,63,0.0,0.0,76,0.00,,,0.01,WeatherCatV1.15B25,2013-08-31 16:39:00,
2013-08-31 12:44:00,77.6,69.8,29.74,NE,52,0.0,2.0,77,0.00,,,0.01,WeatherCatV1.15B25,2013-08-31 16:44:00,
2013-08-31 12:49:00,77.1,69.3,29.74,East,83,0.0,1.0,77,0.00,,,0.01,WeatherCatV1.15B25,2013-08-31 16:49:00,
2013-08-31 12:54:00,76.7,69.3,29.74,East,84,0.0,0.0,78,0.00,,,0.01,WeatherCatV1.15B25,2013-08-31 16:54:00,
2013-08-31 12:59:00,76.4,69.8,29.74,East,84,0.0,0.0,80,0.00,,,0.01,WeatherCatV1.15B25,2013-08-31 16:59:00,
2013-08-31 13:04:00,76.4,69.4,29.74,East,83,0.0,0.0,79,0.00,,,0.01,WeatherCatV1.15B25,2013-08-31 17:04:00,
2013-08-31 13:09:00,76.5,69.5,29.74,East,84,0.0,0.0,79,0.00,,,0.01,WeatherCatV1.15B25,2013-08-31 17:09:00,
2013-08-31 13:14:00,76.4,69.8,29.74,East,84,0.0,0.0,80,0.00,,,0.01,WeatherCatV1.15B25,2013-08-31 17:14:00,
2013-08-31 13:19:00,76.1,69.5,29.74,East,84,0.0,1.0,80,0.00,,,0.01,WeatherCatV1.15B25,2013-08-31 17:19:00,
2013-08-31 13:24:00,75.2,69.0,29.74,East,83,0.0,0.0,81,0.00,,,0.01,WeatherCatV1.15B25,2013-08-31 17:24:00,
2013-08-31 13:29:00,74.4,68.9,29.74,East,84,0.0,0.0,83,0.00,,,0.01,WeatherCatV1.15B25,2013-08-31 17:29:00,
2013-08-31 13:34:00,73.8,69.0,29.75,East,83,0.0,0.0,85,0.00,,,0.01,WeatherCatV1.15B25,2013-08-31 17:34:00,
2013-08-31 13:39:00,73.5,69.0,29.75,East,83,0.0,0.0,86,0.00,,,0.01,WeatherCatV1.15B25,2013-08-31 17:39:00,
2013-08-31 13:44:00,73.3,68.8,29.75,East,83,0.0,0.0,86,0.00,,,0.01,WeatherCatV1.15B25,2013-08-31 17:44:00,
2013-08-31 13:49:00,73.4,68.9,29.75,East,84,0.0,0.0,86,0.00,,,0.01,WeatherCatV1.15B25,2013-08-31 17:49:00,
2013-08-31 13:54:00,73.5,69.0,29.75,NE,51,0.0,0.0,86,0.00,,,0.01,WeatherCatV1.15B25,2013-08-31 17:54:00,
2013-08-31 13:59:00,73.6,69.1,29.74,NE,51,0.0,1.0,86,0.00,,,0.01,WeatherCatV1.15B25,2013-08-31 17:59:00,
2013-08-31 14:04:00,73.4,69.3,29.75,NE,51,0.0,0.0,87,0.00,,,0.01,WeatherCatV1.15B25,2013-08-31 18:04:00,
2013-08-31 14:09:00,73.2,69.1,29.75,NE,51,0.0,0.0,87,0.00,,,0.01,WeatherCatV1.15B25,2013-08-31 18:09:00,
2013-08-31 14:14:00,73.0,69.2,29.75,NE,51,0.0,0.0,88,0.00,,,0.01,WeatherCatV1.15B25,2013-08-31 18:14:00,
2013-08-31 14:19:00,72.7,68.9,29.75,NE,51,0.0,0.0,88,0.00,,,0.01,WeatherCatV1.15B25,2013-08-31 18:19:00,
2013-08-31 14:24:00,72.5,69.1,29.75,NE,51,0.0,0.0,89,0.00,,,0.01,WeatherCatV1.15B25,2013-08-31 18:24:00,
2013-08-31 14:29:00,72.5,69.1,29.75,NW,313,0.0,0.0,89,0.00,,,0.01,WeatherCatV1.15B25,2013-08-31 18:29:00,
2013-08-31 14:34:00,72.4,68.3,29.75,NW,313,0.0,0.0,87,0.00,,,0.01,WeatherCatV1.15B25,2013-08-31 18:34:00,
2013-08-31 14:39:00,72.5,68.7,29.75,NW,313,0.0,0.0,88,0.00,,,0.01,WeatherCatV1.15B25,2013-08-31 18:39:00,
2013-08-31 14:44:00,72.5,68.7,29.75,NW,313,0.0,0.0,88,0.00,,,0.02,WeatherCatV1.15B25,2013-08-31 18:44:00,
2013-08-31 14:49:00,72.4,69.0,29.75,NW,313,0.0,0.0,89,0.00,,,0.02,WeatherCatV1.15B25,2013-08-31 18:49:00,
2013-08-31 14:54:00,72.2,68.8,29.75,NW,313,0.0,0.0,89,0.00,,,0.02,WeatherCatV1.15B25,2013-08-31 18:54:00,
2013-08-31 14:59:00,72.0,68.9,29.75,NW,313,0.0,0.0,90,0.00,,,0.02,WeatherCatV1.15B25,2013-08-31 18:59:00,
2013-08-31 15:04:00,71.9,69.1,29.75,NW,313,0.0,2.0,91,0.59,,,0.10,WeatherCatV1.15B25,2013-08-31 19:04:00,
2013-08-31 15:09:00,71.4,68.6,29.76,NW,313,0.0,0.0,91,0.27,,,0.13,WeatherCatV1.15B25,2013-08-31 19:09:00,
2013-08-31 15:10:00,71.4,68.6,29.76,NW,313,0.0,0.0,91,0.39,,,0.00,WeatherCatV1.15B25,2013-08-31 19:10:00,
2013-08-31 15:15:00,71.1,68.3,29.76,NW,313,0.0,0.0,91,0.27,,,0.00,WeatherCatV1.15B25,2013-08-31 19:15:00,
2013-08-31 15:20:00,70.9,68.1,29.76,NW,315,0.0,2.0,91,2.46,,,0.00,WeatherCatV1.15B25,2013-08-31 19:20:00,
2013-08-31 15:25:00,70.9,68.1,29.76,NW,315,0.0,2.0,91,2.46,,,0.00,WeatherCatV1.15B25,2013-08-31 19:25:00,
2013-08-31 15:30:00,70.9,68.1,29.76,NW,315,0.0,2.0,91,2.46,,,0.00,WeatherCatV1.15B25,2013-08-31 19:30:00,
2013-08-31 15:35:00,70.2,68.1,29.76,NW,315,0.0,0.0,93,0.13,,,0.00,WeatherCatV1.15B25,2013-08-31 19:35:00,
2013-08-31 15:40:00,70.2,68.1,29.76,NW,315,0.0,0.0,93,0.13,,,0.00,WeatherCatV1.15B25,2013-08-31 19:40:00,
2013-08-31 15:45:00,70.2,68.1,29.76,NW,315,0.0,0.0,93,0.13,,,0.00,WeatherCatV1.15B25,2013-08-31 19:45:00,
2013-08-31 15:50:00,69.9,68.1,29.76,NW,315,0.0,0.0,94,0.00,,,0.00,WeatherCatV1.15B25,2013-08-31 19:50:00,
2013-08-31 15:55:00,69.9,68.1,29.76,NW,315,0.0,0.0,94,0.00,,,0.00,WeatherCatV1.15B25,2013-08-31 19:55:00,
2013-08-31 16:00:00,69.9,68.1,29.76,NW,315,0.0,0.0,94,0.00,,,0.00,WeatherCatV1.15B25,2013-08-31 20:00:00,
2013-08-31 16:05:00,70.3,68.5,29.76,NW,315,0.0,0.0,94,0.00,,,0.00,WeatherCatV1.15B25,2013-08-31 20:05:00,
2013-08-31 16:10:00,70.3,68.5,29.76,NW,315,0.0,0.0,94,0.00,,,0.00,WeatherCatV1.15B25,2013-08-31 20:10:00,
2013-08-31 16:15:00,70.3,68.5,29.76,NW,315,0.0,0.0,94,0.00,,,0.00,WeatherCatV1.15B25,2013-08-31 20:15:00,
2013-08-31 16:20:00,70.2,68.7,29.75,NW,315,0.0,0.0,95,0.00,,,0.00,WeatherCatV1.15B25,2013-08-31 20:20:00,
2013-08-31 16:25:00,70.2,68.7,29.75,NW,315,0.0,0.0,95,0.00,,,0.00,WeatherCatV1.15B25,2013-08-31 20:25:00,
2013-08-31 16:30:00,70.2,68.7,29.75,NW,315,0.0,0.0,95,0.00,,,0.00,WeatherCatV1.15B25,2013-08-31 20:30:00,
2013-08-31 16:35:00,70.5,69.0,29.75,NW,315,0.0,0.0,95,0.00,,,0.00,WeatherCatV1.15B25,2013-08-31 20:35:00,
2013-08-31 16:40:00,70.5,69.0,29.75,NW,315,0.0,0.0,95,0.00,,,0.00,WeatherCatV1.15B25,2013-08-31 20:40:00,
2013-08-31 16:45:00,70.5,69.0,29.75,NW,315,0.0,0.0,95,0.00,,,0.00,WeatherCatV1.15B25,2013-08-31 20:45:00,
2013-08-31 16:50:00,70.3,68.8,29.75,NW,315,0.0,0.0,95,0.00,,,0.00,WeatherCatV1.15B25,2013-08-31 20:50:00,
2013-08-31 16:55:00,70.3,68.8,29.75,NW,315,0.0,0.0,95,0.00,,,0.00,WeatherCatV1.15B25,2013-08-31 20:55:00,
2013-08-31 17:00:00,70.3,68.8,29.75,NW,315,0.0,0.0,95,0.00,,,0.00,WeatherCatV1.15B25,2013-08-31 21:00:00,
2013-08-31 17:05:00,70.3,68.8,29.75,NW,315,0.0,0.0,95,0.00,,,0.00,WeatherCatV1.15B25,2013-08-31 21:05:00,
2013-08-31 17:10:00,70.3,68.8,29.75,NW,315,0.0,0.0,95,0.00,,,0.00,WeatherCatV1.15B25,2013-08-31 21:10:00,
2013-08-31 17:15:00,70.3,68.8,29.75,NW,315,0.0,0.0,95,0.00,,,0.00,WeatherCatV1.15B25,2013-08-31 21:15:00,
2013-08-31 17:20:00,70.2,68.7,29.75,NW,315,0.0,0.0,95,0.00,,,0.00,WeatherCatV1.15B25,2013-08-31 21:20:00,
2013-08-31 17:25:00,70.2,68.7,29.75,NW,315,0.0,0.0,95,0.00,,,0.00,WeatherCatV1.15B25,2013-08-31 21:25:00,
2013-08-31 17:30:00,70.2,68.7,29.75,NW,315,0.0,0.0,95,0.00,,,0.00,WeatherCatV1.15B25,2013-08-31 21:30:00,
2013-08-31 17:35:00,69.8,68.3,29.75,NW,315,0.0,0.0,95,0.00,,,0.00,WeatherCatV1.15B25,2013-08-31 21:35:00,
2013-08-31 17:40:00,69.8,68.3,29.75,NW,315,0.0,0.0,95,0.00,,,0.00,WeatherCatV1.15B25,2013-08-31 21:40:00,
2013-08-31 17:45:00,69.8,68.3,29.75,NW,315,0.0,0.0,95,0.00,,,0.00,WeatherCatV1.15B25,2013-08-31 21:45:00,
2013-08-31 17:50:00,69.6,68.1,29.75,NW,315,0.0,0.0,95,0.00,,,0.00,WeatherCatV1.15B25,2013-08-31 21:50:00,
2013-08-31 17:55:00,69.6,68.1,29.75,NW,315,0.0,0.0,95,0.00,,,0.00,WeatherCatV1.15B25,2013-08-31 21:55:00,
2013-08-31 18:00:00,69.6,68.1,29.75,NW,315,0.0,0.0,95,0.00,,,0.00,WeatherCatV1.15B25,2013-08-31 22:00:00,
2013-08-31 18:05:00,69.5,68.0,29.75,NW,315,0.0,0.0,95,0.00,,,0.00,WeatherCatV1.15B25,2013-08-31 22:05:00,
2013-08-31 18:10:00,69.5,68.0,29.75,NW,315,0.0,0.0,95,0.00,,,0.00,WeatherCatV1.15B25,2013-08-31 22:10:00,
2013-08-31 18:15:00,69.5,68.0,29.75,NW,315,0.0,0.0,95,0.00,,,0.00,WeatherCatV1.15B25,2013-08-31 22:15:00,
2013-08-31 18:20:00,69.5,68.0,29.75,NW,315,0.0,0.0,95,0.00,,,0.00,WeatherCatV1.15B25,2013-08-31 22:20:00,
2013-08-31 18:25:00,69.5,68.0,29.75,NW,315,0.0,0.0,95,0.00,,,0.00,WeatherCatV1.15B25,2013-08-31 22:25:00,
2013-08-31 18:30:00,69.5,68.0,29.75,NW,315,0.0,0.0,95,0.00,,,0.00,WeatherCatV1.15B25,2013-08-31 22:30:00,
2013-08-31 18:35:00,69.4,68.2,29.75,NW,315,0.0,0.0,96,0.00,,,0.00,WeatherCatV1.15B25,2013-08-31 22:35:00,
2013-08-31 18:40:00,69.4,68.2,29.75,NW,315,0.0,0.0,96,0.00,,,0.00,WeatherCatV1.15B25,2013-08-31 22:40:00,
2013-08-31 18:45:00,69.4,68.2,29.75,NW,315,0.0,0.0,96,0.00,,,0.00,WeatherCatV1.15B25,2013-08-31 22:45:00,
2013-08-31 18:50:00,69.3,68.1,29.75,NW,315,0.0,0.0,96,0.00,,,0.00,WeatherCatV1.15B25,2013-08-31 22:50:00,
2013-08-31 18:55:00,69.3,68.1,29.75,NW,315,0.0,0.0,96,0.00,,,0.00,WeatherCatV1.15B25,2013-08-31 22:55:00,
2013-08-31 19:00:00,69.3,68.1,29.75,NW,315,0.0,0.0,96,0.00,,,0.00,WeatherCatV1.15B25,2013-08-31 23:00:00,
2013-08-31 19:05:00,69.3,68.1,29.75,NW,315,0.0,0.0,96,0.00,,,0.00,WeatherCatV1.15B25,2013-08-31 23:05:00,
2013-08-31 19:10:00,69.3,68.1,29.75,NW,315,0.0,0.0,96,0.00,,,0.00,WeatherCatV1.15B25,2013-08-31 23:10:00,
2013-08-31 19:15:00,69.3,68.1,29.75,NW,315,0.0,0.0,96,0.00,,,0.00,WeatherCatV1.15B25,2013-08-31 23:15:00,
2013-08-31 19:20:00,69.0,67.8,29.76,NW,315,0.0,0.0,96,0.00,,,0.00,WeatherCatV1.15B25,2013-08-31 23:20:00,
2013-08-31 19:25:00,69.0,67.8,29.76,NW,315,0.0,0.0,96,0.00,,,0.00,WeatherCatV1.15B25,2013-08-31 23:25:00,
2013-08-31 19:30:00,69.0,67.8,29.76,NW,315,0.0,0.0,96,0.00,,,0.00,WeatherCatV1.15B25,2013-08-31 23:30:00,
2013-08-31 19:35:00,68.9,67.7,29.75,NW,315,0.0,0.0,96,0.00,,,0.00,WeatherCatV1.15B25,2013-08-31 23:35:00,
2013-08-31 19:40:00,68.9,67.7,29.75,NW,315,0.0,0.0,96,0.00,,,0.00,WeatherCatV1.15B25,2013-08-31 23:40:00,
2013-08-31 19:45:00,68.9,67.7,29.75,NW,315,0.0,0.0,96,0.00,,,0.00,WeatherCatV1.15B25,2013-08-31 23:45:00,
2013-08-31 19:50:00,68.8,67.6,29.75,NW,315,0.0,0.0,96,0.00,,,0.00,WeatherCatV1.15B25,2013-08-31 23:50:00,
2013-08-31 19:55:00,68.8,67.6,29.75,NW,315,0.0,0.0,96,0.00,,,0.00,WeatherCatV1.15B25,2013-08-31 23:55:00,
2013-08-31 20:00:00,68.8,67.6,29.75,NW,315,0.0,0.0,96,0.00,,,0.00,WeatherCatV1.15B25,2013-09-01 00:00:00,
2013-08-31 20:05:00,68.6,67.4,29.75,NW,315,0.0,0.0,96,0.00,,,0.00,WeatherCatV1.15B25,2013-09-01 00:05:00,
2013-08-31 20:10:00,68.6,67.4,29.75,NW,315,0.0,0.0,96,0.00,,,0.00,WeatherCatV1.15B25,2013-09-01 00:10:00,
2013-08-31 20:15:00,68.6,67.4,29.75,NW,315,0.0,0.0,96,0.00,,,0.00,WeatherCatV1.15B25,2013-09-01 00:15:00,
2013-08-31 20:20:00,68.4,67.2,29.76,NW,315,0.0,0.0,96,0.00,,,0.00,WeatherCatV1.15B25,2013-09-01 00:20:00,
2013-08-31 20:25:00,68.4,67.2,29.76,NW,315,0.0,0.0,96,0.00,,,0.00,WeatherCatV1.15B25,2013-09-01 00:25:00,
2013-08-31 20:30:00,68.4,67.2,29.76,NW,315,0.0,0.0,96,0.00,,,0.00,WeatherCatV1.15B25,2013-09-01 00:30:00,
2013-08-31 20:35:00,68.1,66.9,29.77,NW,315,0.0,0.0,96,0.00,,,0.00,WeatherCatV1.15B25,2013-09-01 00:35:00,
2013-08-31 20:40:00,68.1,66.9,29.77,NW,315,0.0,0.0,96,0.00,,,0.00,WeatherCatV1.15B25,2013-09-01 00:40:00,
2013-08-31 20:45:00,68.1,66.9,29.77,NW,315,0.0,0.0,96,0.00,,,0.00,WeatherCatV1.15B25,2013-09-01 00:45:00,
2013-08-31 20:50:00,68.0,66.8,29.77,NW,315,0.0,0.0,96,0.00,,,0.00,WeatherCatV1.15B25,2013-09-01 00:50:00,
2013-08-31 20:55:00,68.0,66.8,29.77,NW,315,0.0,0.0,96,0.00,,,0.00,WeatherCatV1.15B25,2013-09-01 00:55:00,
2013-08-31 21:00:00,68.0,66.8,29.77,NW,315,0.0,0.0,96,0.00,,,0.00,WeatherCatV1.15B25,2013-09-01 01:00:00,
2013-08-31 21:05:00,67.9,66.7,29.77,NW,315,0.0,0.0,96,0.00,,,0.00,WeatherCatV1.15B25,2013-09-01 01:05:00,
2013-08-31 21:10:00,67.9,66.7,29.77,NW,315,0.0,0.0,96,0.00,,,0.00,WeatherCatV1.15B25,2013-09-01 01:10:00,
2013-08-31 21:15:00,67.9,66.7,29.77,NW,315,0.0,0.0,96,0.00,,,0.00,WeatherCatV1.15B25,2013-09-01 01:15:00,
2013-08-31 21:20:00,67.7,66.5,29.76,NW,315,0.0,0.0,96,0.00,,,0.00,WeatherCatV1.15B25,2013-09-01 01:20:00,
2013-08-31 21:25:00,67.7,66.5,29.76,NW,315,0.0,0.0,96,0.00,,,0.00,WeatherCatV1.15B25,2013-09-01 01:25:00,
2013-08-31 21:30:00,67.7,66.5,29.76,NW,315,0.0,0.0,96,0.00,,,0.00,WeatherCatV1.15B25,2013-09-01 01:30:00,
2013-08-31 21:35:00,67.5,66.3,29.75,NW,315,0.0,0.0,96,0.00,,,0.00,WeatherCatV1.15B25,2013-09-01 01:35:00,
2013-08-31 21:40:00,67.5,66.3,29.75,NW,315,0.0,0.0,96,0.00,,,0.00,WeatherCatV1.15B25,2013-09-01 01:40:00,
2013-08-31 21:45:00,67.5,66.3,29.75,NW,315,0.0,0.0,96,0.00,,,0.00,WeatherCatV1.15B25,2013-09-01 01:45:00,
2013-08-31 21:50:00,67.1,65.9,29.75,NW,315,0.0,0.0,96,0.00,,,0.00,WeatherCatV1.15B25,2013-09-01 01:50:00,
2013-08-31 21:55:00,67.1,65.9,29.75,NW,315,0.0,0.0,96,0.00,,,0.00,WeatherCatV1.15B25,2013-09-01 01:55:00,
2013-08-31 22:00:00,67.1,65.9,29.75,NW,315,0.0,0.0,96,0.00,,,0.00,WeatherCatV1.15B25,2013-09-01 02:00:00,
2013-08-31 22:05:00,66.7,65.5,29.75,NW,315,0.0,0.0,96,0.00,,,0.00,WeatherCatV1.15B25,2013-09-01 02:05:00,
2013-08-31 22:10:00,66.7,65.5,29.75,NW,315,0.0,0.0,96,0.00,,,0.00,WeatherCatV1.15B25,2013-09-01 02:10:00,
2013-08-31 22:15:00,66.7,65.5,29.75,NW,315,0.0,0.0,96,0.00,,,0.00,WeatherCatV1.15B25,2013-09-01 02:15:00,
2013-08-31 22:20:00,66.6,65.4,29.75,NW,315,0.0,0.0,96,0.00,,,0.00,WeatherCatV1.15B25,2013-09-01 02:20:00,
2013-08-31 22:25:00,66.6,65.4,29.75,NW,315,0.0,0.0,96,0.00,,,0.00,WeatherCatV1.15B25,2013-09-01 02:25:00,
2013-08-31 22:30:00,66.6,65.4,29.75,NW,315,0.0,0.0,96,0.00,,,0.00,WeatherCatV1.15B25,2013-09-01 02:30:00,
2013-08-31 22:35:00,66.2,65.0,29.75,NW,315,0.0,0.0,96,0.00,,,0.00,WeatherCatV1.15B25,2013-09-01 02:35:00,
2013-08-31 22:40:00,66.2,65.0,29.75,NW,315,0.0,0.0,96,0.00,,,0.00,WeatherCatV1.15B25,2013-09-01 02:40:00,
2013-08-31 22:45:00,66.2,65.0,29.75,NW,315,0.0,0.0,96,0.00,,,0.00,WeatherCatV1.15B25,2013-09-01 02:45:00,
2013-08-31 22:50:00,66.1,64.9,29.76,NW,315,0.0,0.0,96,0.00,,,0.00,WeatherCatV1.15B25,2013-09-01 02:50:00,
2013-08-31 22:55:00,66.1,64.9,29.76,NW,315,0.0,0.0,96,0.00,,,0.00,WeatherCatV1.15B25,2013-09-01 02:55:00,
2013-08-31 23:00:00,66.1,64.9,29.76,NW,315,0.0,0.0,96,0.00,,,0.00,WeatherCatV1.15B25,2013-09-01 03:00:00,
2013-08-31 23:05:00,65.9,65.0,29.75,NW,315,0.0,0.0,97,0.00,,,0.00,WeatherCatV1.15B25,2013-09-01 03:05:00,
2013-08-31 23:10:00,65.9,65.0,29.75,NW,315,0.0,0.0,97,0.00,,,0.00,WeatherCatV1.15B25,2013-09-01 03:10:00,
2013-08-31 23:15:00,65.9,65.0,29.75,NW,315,0.0,0.0,97,0.00,,,0.00,WeatherCatV1.15B25,2013-09-01 03:15:00,
2013-08-31 23:20:00,65.8,64.9,29.75,NW,315,0.0,1.0,97,0.00,,,0.00,WeatherCatV1.15B25,2013-09-01 03:20:00,
2013-08-31 23:25:00,65.8,64.9,29.75,NW,315,0.0,1.0,97,0.00,,,0.00,WeatherCatV1.15B25,2013-09-01 03:25:00,
2013-08-31 23:30:00,65.8,64.9,29.75,NW,315,0.0,1.0,97,0.00,,,0.00,WeatherCatV1.15B25,2013-09-01 03:30:00,
2013-08-31 23:35:00,65.6,64.4,29.75,NW,315,0.0,0.0,96,0.00,,,0.00,WeatherCatV1.15B25,2013-09-01 03:35:00,
2013-08-31 23:40:00,65.6,64.4,29.75,NW,315,0.0,0.0,96,0.00,,,0.00,WeatherCatV1.15B25,2013-09-01 03:40:00,
2013-08-31 23:45:00,65.6,64.4,29.75,NW,315,0.0,0.0,96,0.00,,,0.00,WeatherCatV1.15B25,2013-09-01 03:45:00,